Weather Service Report


115 
ASUS45 KABQ 291110
RWRNM 
NEW MEXICO REGIONAL WEATHER ROUNDUP
NATIONAL WEATHER SERVICE ALBUQUERQUE NM
500 AM MDT SUN MAY 29 2016

NOTE: "FAIR" MEANS FEW OR NO CLOUDS BELOW 12,000 FEET AGL WITH NO
       SIGNIFICANT WEATHER OR OBSTRUCTIONS TO VISION.

      THIS PRODUCT IS RELEASED AS TWO VERSIONS.  ONE VERSION NEAR
      THE TOP OF THE HOUR CONTAINING PRELIMINARY DATA FROM ALBUQUERQUE
      AND OTHER STATIONS.  A FINAL VERSION WITH ADDITIONAL DATA IS 
      ISSUED ABOUT 10 MINUTES AFTER THE HOUR.
 
NMZ501-503-504-510>518-291200-
NORTHWEST PLATEAU/NORTHCENTRAL MOUNTAINS
  
CITY           SKY/WX    TMP DP  RH WIND       PRES   REMARKS
FARMINGTON     FAIR      52  30  43 E6        30.10S                  
LOS ALAMOS     FAIR      56  24  28 NW3       30.24R                  
SANTA FE       FAIR      51  21  30 NE12      30.18R                  
TAOS           FAIR      45  25  45 CALM      30.24S                  
ANGEL FIRE     FAIR      31  25  79 CALM      30.33S                  

$$
NMZ402-403-502-505>509-291200-
WESTCENTRAL MOUNTAINS/SOUTHWEST MOUNTAINS
  
CITY           SKY/WX    TMP DP  RH WIND       PRES   REMARKS
GALLUP         FAIR      40  28  62 CALM      30.17R                  
GRANTS         FAIR      37  22  54 CALM      30.20R                  
SILVER CITY      N/A     48   9  20 N12       30.15S                  

$$
NMZ407-409-411-412-291200-
SOUTHERN DESERTS
  
CITY           SKY/WX    TMP DP  RH WIND       PRES   REMARKS
LORDSBURG      FAIR      52   3  14 S5        30.08R                  
DEMING         FAIR      54   8  16 S5        30.09R                  
LAS CRUCES     FAIR      57   7  13 CALM      30.10R                  
HOLLOMAN AFB   FAIR      57  13  17 E7        30.05R                  
ALAMOGORDO     FAIR      59  12  15 E3        30.07R                  
T OR C         FAIR      58   9  14 W7        30.08R                  

$$
NMZ519>523-291200-
CENTRAL VALLEYS/CENTRAL HIGHLANDS
  
CITY           SKY/WX    TMP DP  RH WIND       PRES   REMARKS
ALBUQUERQUE    FAIR      56  15  20 E7        30.11R                  
DOUBLE EAGLE   FAIR      46  17  31 N3        30.15R                  
MORIARTY ARPT  FAIR      34  20  55 NW5       30.20R WCI  30          
CLINES CORNERS FAIR      47  20  34 S12       30.21R                  
BELEN          FAIR      53   8  16 CALM      30.10R                  
SOCORRO        FAIR      51  14  22 NW6       30.08R                  

$$
NMZ524>526-539-540-291200-
SOUTHCENTRAL MOUNTAINS
  
CITY           SKY/WX    TMP DP  RH WIND       PRES   REMARKS
RUIDOSO          N/A     54   9  16 SW9       30.23R                  

$$
NMZ527>531-291200-
NORTHEAST HIGHLANDS/NORTHEAST PLAINS
  
CITY           SKY/WX    TMP DP  RH WIND       PRES   REMARKS
LAS VEGAS      FAIR      44  23  43 E7        30.24R                  
RATON          FAIR      44  33  65 NE7       30.22R                  
CLAYTON        FAIR      53  45  74 SE6       30.17R                  

$$
NMZ532>537-291200-
EASTCENTRAL PLAINS
  
CITY           SKY/WX    TMP DP  RH WIND       PRES   REMARKS
TUCUMCARI      FAIR      60  50  69 NE3       30.11R                  
CANNON AFB     MOCLDY    57  52  82 SE6       30.14R                  
CLOVIS AIRPORT MOCLDY    59  48  67 S12       30.13R                  

$$
NMZ028-029-538-291200-
SOUTHEAST PLAINS
  
CITY           SKY/WX    TMP DP  RH WIND       PRES   REMARKS
ROSWELL        CLOUDY    64  45  49 N5        30.05R                  
ARTESIA        MOCLDY    63  30  29 NW6       30.05R                  
CARLSBAD       MOCLDY    69  61  75 SE6       30.01R                  
HOBBS          FAIR      64  64 100 E20       30.08R                  


$$
  

Return to Home page


Western Regional Climate Center, wrcc@dri.edu